Simultaneous Nadir Overpasses (SNOs) Predictions

Prediction of SNOs between METOP-C and LANDSAT-8 Satellite Orbit:

Table of predicted SNOs for the next 14.0 days since TLE Epoch: 3/13/2021
Index Date (METOP-C) Time (METOP-C) Lat,Lon (METOP-C) SZA (METOP-C ) Date (LANDSAT-8) Time (LANDSAT-8) Lat,Lon (LANDSAT-8) SZA (LANDSAT-8 ) Distance(km) Time Diff (sec)
1 03/15/2021 08:26:09 -80.52, -97.80 96.54 03/15/2021 08:27:23 -80.29, -96.96 96.66 30.23 74
2 03/15/2021 09:16:19 81.10, 80.25 84.84 03/15/2021 09:16:21 81.10, 80.07 84.83 3.23 2
3 03/15/2021 10:06:59 -81.12,-111.97 95.12 03/15/2021 10:05:47 -81.12,-112.01 95.15 0.81 72
4 03/18/2021 04:00:04 -81.05, -21.87 96.38 03/18/2021 04:01:10 -81.05, -21.80 96.35 1.17 66
5 03/18/2021 04:50:42 81.09, 146.37 83.72 03/18/2021 04:50:35 81.08, 146.26 83.70 2.08 7
6 03/20/2021 23:34:26 -81.05, 44.58 97.47 03/20/2021 23:35:23 -81.06, 44.75 97.43 2.97 57
7 03/21/2021 00:25:04 81.09,-147.16 82.64 03/21/2021 00:24:48 81.09,-147.22 82.62 1.20 16
8 03/23/2021 19:08:46 -81.07, 111.38 98.51 03/23/2021 19:09:35 -81.06, 111.26 98.50 2.10 49
9 03/23/2021 19:59:25 81.09, -80.70 81.56 03/23/2021 19:59:00 81.09, -80.73 81.54 0.68 25
10 03/26/2021 14:43:08 -81.07, 177.79 99.59 03/26/2021 14:43:48 -81.07, 177.74 99.58 0.91 40



Historial Predications of SNOs between METOP-C and LANDSAT-8
